#timestamp,LO_Frequency,Hit,StdDev 
1553536815.5,286047000.1,N
1553536835.4,286047000.6,N
1553536855.2,286046999.9,N
1553536875.1,286047000.8,N
1553536876.0,286047000.8,N
1553536895.8,286047000.7,N
1553536915.6,286047000.6,N
1553536935.5,286047000.8,N
1553536955.3,286047000.6,N
1553536975.2,286046998.2,N
1553536995.9,286047001.2,N
1553537015.7,286047001.0,N
1553537035.6,286047001.1,N
1553537055.4,286046998.2,N
1553537075.2,286047000.0,N
1553537095.1,286047000.2,N
1553537096.0,286047000.2,N
1553537115.8,286047000.5,N
1553537135.7,286047001.3,N
1553537155.5,286047002.4,N
1553537175.3,286046999.8,N
1553537195.2,286047002.4,N
1553537215.0,286046999.9,N
1553537215.9,286046999.9,N
1553537235.8,286047002.7,N
1553537255.6,286047001.1,N
1553537275.4,286046998.1,N
1553537295.3,286046998.3,N
1553537315.1,286047001.1,N
1553537335.8,286047000.4,N
1553537355.7,286047002.6,N
1553537375.5,286047001.4,N
1553537395.4,286047004.3,Y
1553537415.2,286047002.3,P
1553537435.0,286047002.0,N
1553537435.9,286047002.0,N
1553537455.8,286047006.0,Y
1553537475.6,286047002.0,P
1553537495.5,286047001.4,P
1553537515.3,286047003.1,P
1553537535.1,286047005.5,Y
1553537555.9,286047001.3,P
1553537575.7,286047000.3,N
1553537595.6,286047004.0,P
1553537615.4,286047005.9,Y
1553537635.2,286047002.3,P
1553537655.1,286047002.1,P
1553537656.0,286047002.1,P
1553537675.8,286047002.5,Y
1553537695.7,286046998.7,P
1553537715.5,286046998.1,N
1553537735.3,286046998.6,N
1553537755.2,286046999.0,N
1553537775.0,286046996.6,N
1553537775.9,286046996.6,N
1553537795.8,286046999.4,N
1553537815.6,286046998.2,N
1553537835.4,286046996.7,N
1553537855.3,286046999.3,N
1553537875.1,286046997.3,N
1553537895.8,286046997.5,N
1553537915.7,286046997.8,N
1553537935.5,286046996.8,N
1553537955.4,286046995.5,Y
1553537975.2,286046995.0,P
1553537995.0,286046997.9,N
1553537995.9,286046997.9,N
1553538015.8,286046998.5,N
1553538035.6,286046996.6,N
1553538055.5,286046996.6,N
1553538075.3,286047000.7,N
1553538095.1,286046998.6,N
1553538115.9,286046998.7,N
1553538135.7,286047000.4,N
1553538155.5,286046998.2,N
1553538175.4,286046999.3,N
1553538195.2,286046998.5,N
1553538215.1,286046998.5,N
1553538216.0,286046998.5,N
1553538235.8,286046999.3,N
1553538255.6,286046999.0,N
1553538275.5,286047001.0,N
1553538295.3,286047000.0,N
1553538315.2,286047002.4,N
1553538335.9,286047001.9,N
1553538355.7,286047000.4,N
1553538375.6,286046998.1,N
1553538395.4,286046999.8,N
1553538415.2,286047001.2,N
1553538435.1,286047001.1,N
1553538436.0,286047001.1,N
1553538455.8,286046999.9,N
1553538475.7,286046998.6,N
1553538495.5,286046998.7,N
1553538515.3,286047000.8,N
1553538535.2,286046999.9,N
1553538555.0,286047002.5,N
1553538555.9,286047002.5,N
1553538575.8,286047000.0,N
1553538595.6,286046998.2,N
1553538615.4,286046999.8,N
1553538635.3,286046999.7,N
1553538655.1,286047001.6,N
1553538675.8,286047003.7,N
1553538695.7,286047003.5,N
1553538715.5,286047001.9,N
1553538735.4,286047001.5,N
1553538755.2,286047002.8,N
1553538775.0,286047001.1,N
1553538775.9,286047001.1,N
1553538795.8,286047000.6,N
1553538815.6,286046999.8,N
1553538835.5,286047000.3,N
1553538855.3,286047001.4,N
1553538875.1,286047001.5,N
1553538895.9,286047001.9,N
1553538915.7,286047001.9,N
1553538935.5,286046999.8,N
1553538955.4,286047003.8,N
1553538975.2,286047004.2,N
1553538995.1,286047004.0,N
1553538996.0,286047004.0,N
1553539015.8,286047003.2,N
1553539035.6,286047006.0,Y
1553539055.5,286047003.7,P
1553539075.3,286047002.9,N
1553539095.2,286047003.4,P
1553539115.9,286047001.5,N
1553539135.7,286047001.3,N
1553539155.6,286046999.7,N
1553539175.4,286047000.1,N
1553539195.2,286047002.3,N
1553539215.1,286047002.4,N
1553539216.0,286047002.4,N
1553539235.8,286047001.2,N
1553539255.7,286046998.5,N
1553539275.5,286047002.6,N
1553539295.3,286047001.1,N
1553539315.2,286047000.3,N
1553539335.0,286047000.2,N
1553539335.9,286047000.2,N
1553539355.7,286047001.6,N
1553539375.6,286047001.7,N
1553539395.4,286047001.8,N
1553539415.3,286047001.4,N
1553539435.1,286047003.6,N
1553539436.0,286047003.6,N
1553539455.8,286047002.8,N
1553539475.7,286047002.1,N
1553539495.5,286047002.2,N
1553539515.3,286047001.9,N
1553539535.2,286047000.3,N
1553539555.0,286047004.4,Y
1553539555.9,286047004.4,P
1553539575.8,286047000.4,N
1553539595.6,286046998.2,N
1553539615.4,286046998.5,N
1553539635.3,286047000.9,N
1553539655.1,286047000.4,N
1553539675.9,286047001.1,N
1553539695.7,286047000.7,N
1553539715.5,286047001.1,N
1553539735.4,286046998.5,N
1553539755.2,286046998.1,N
1553539775.0,286046998.8,N
1553539775.9,286046998.8,N
1553539795.8,286046998.8,N
1553539815.6,286046998.5,N
1553539835.5,286046996.7,N
1553539855.3,286046998.8,N
1553539875.1,286046999.3,N
1553539895.9,286046997.2,N
1553539915.7,286046999.1,N
1553539935.5,286046999.2,N
1553539955.4,286046996.6,N
1553539975.2,286046998.6,N
1553539995.1,286046998.1,N
1553539996.0,286046998.1,N
1553540015.8,286047000.9,N
1553540035.6,286047000.5,N
1553540055.5,286047001.1,N
1553540075.3,286046998.1,N
1553540095.2,286047001.2,N
1553540115.9,286046998.6,N
1553540135.7,286047002.5,N
1553540155.6,286047000.9,N
1553540175.4,286046998.2,N
1553540195.2,286046998.2,N
1553540215.1,286047000.8,N
1553540216.0,286047000.8,N
1553540235.8,286046998.7,N
1553540255.7,286046998.1,N
1553540275.5,286047001.0,N
1553540295.3,286047000.2,N
1553540315.2,286046999.8,N
1553540335.0,286047000.9,N
1553540335.9,286047000.9,N
1553540355.7,286047002.6,N
1553540375.6,286047002.1,N
1553540395.4,286047002.5,N
